THORAD AGENA D DEB, 4615

Orbit data source: Space-Track

THORAD AGENA D DEB, 4615 is space debris in SSO originally from a launch on Wed, 08 Apr 1970 UTC launched from the Air Force Western Test Range (AFWTR). Debris objects in space refer to the collection of defunct objects orbiting the Earth. Examples of debris include non-operational satellites, rocket bodies, and fragments generated from explosions, collisions, or faulty payload assembly.

Loading next visibility...
Identifier
4615, 1970-025T
Orbit
SSO
Country
Flag of USUS
Related business
Manufacturer
Unknown
Mission
Spacecraft
Bus & Motor
Unknown
Mass
Unknown
Launch date (UTC)
1970-04-08 (56 years ago)
Launch vehicle
Unknown
Launch site
Air Force Western Test Range (AFWTR)
Object type
Payload
Rocket body
Debris
Shape & HBR
Unknown shape, 0.3 m
Radar Cross Section
Medium (>0.1 m² and <1 m²)

Expand to show TLE details & history
Last TLE update: 2 days ago

TLE from 2 days ago
0 THORAD AGENA D DEB
1  4615U 70025T   26171.35535817  .00000143  00000-0  20592-3 0  9993
2  4615 100.1459 300.7570 0060570 103.6151 317.3295 13.72769321803074
Epoch: 2026-06-20T08:31Z
TLE epoch observation values (Epoch: 2026-06-20T08:31:42.945Z)
Latitude
59.02348°
Longitude
-112.99377°
Altitude
966.851 km
Speed
7.39 km/s
True Right ascension
18h 54m 01s
True Declination
58° 52' 33"
Sunlit
Object was in daylight at epoch
Visualization orbit readout
Latitude
Unknown
Longitude
Unknown
Altitude
Unknown
Speed
Unknown
Apparent Right ascension
Unknown
Apparent Declination
Unknown
Sunlit
N/A
Visualization observer readout
Local Sidereal Time
07:06:44
Azimuth
Unknown
Elevation
Unknown
Doppler factor
Unknown
Orbital elements
Apogee altitude
1,031.55 km
Perigee altitude
942.33 km
Semi-major axis
7,365.077 km
Eccentricity
0.00606
Inclination
100.1459°
RAAN
300.757°
Arg. of periapsis
103.6151°
True anomaly
316.85644°
Mean anomaly
317.3295°
Eccentric anomaly
317.09323°
Mean motion
3.43382 °/min
Orbital period
104.84 mins
BSTAR
0.00020592
Loading maneuver chart data...
Computing Atmospheric mass density...

Documentation

Showing up to 5 results
|